STARLINK-37060, 68150

Orbit data source: Space-Track

STARLINK-37060, 68150 is a payload satellite owned by SpaceX/Seattle (US) in SSO that was launched on Fri, 13 Mar 2026 UTC via an FALCON 9 launch vehicle from the Air Force Western Test Range (AFWTR). Payload-class satellites include a variety of spacecraft equipped with specific instruments for various scientific and technological missions. These include communications satellites like Starlink; space stations such as the ISS; scientific satellites like the Hubble; Earth observation satellites from companies like Planet Labs, Umbra, and HawkEye 360; GPS; miniature CubeSats for education and research; and military/defense satellites.

Loading next visibility...
Identifier
68150, 2026-049J
Orbit
SSO
Country
Flag of USUS
Related business
Manufacturer
SpaceX/Seattle
Mission
Operational spacecraft
Bus & Motor
STARLINK V2MO, Unknown motor
Mass
575 kg wet, ~530 kg dry
Launch date (UTC)
2026-03-13 (3 months ago)
Launch vehicle
FALCON 9
Launch site
Air Force Western Test Range (AFWTR)
Object type
Payload
Rocket body
Debris
Shape & HBR
Unknown shape, 17.7 m
Radar Cross Section
Large (>1 m²)

Expand to show TLE details & history
Last TLE update: 23 hours ago

TLE from 23 hours ago
0 STARLINK-37060
1 68150U 26049J   26171.03399866  .00012440  00000-0  38692-3 0  9994
2 68150  97.2850 192.3531 0001633  91.6488 268.4941 15.33452509 15339
Epoch: 2026-06-20T00:48Z
TLE epoch observation values (Epoch: 2026-06-20T00:48:57.484Z)
Latitude
-0.00009°
Longitude
-88.14083°
Altitude
468.662 km
Speed
7.632 km/s
True Right ascension
12h 49m 24s
True Declination
0° 00' 00"
Sunlit
Object was in daylight at epoch
Visualization orbit readout
Latitude
Unknown
Longitude
Unknown
Altitude
Unknown
Speed
Unknown
Apparent Right ascension
Unknown
Apparent Declination
Unknown
Sunlit
N/A
Visualization observer readout
Local Sidereal Time
10:18:56
Azimuth
Unknown
Elevation
Unknown
Doppler factor
Unknown
Orbital elements
Apogee altitude
463.581 km
Perigee altitude
461.347 km
Semi-major axis
6,840.601 km
Eccentricity
0.00016
Inclination
97.285°
RAAN
192.3531°
Arg. of periapsis
91.6488°
True anomaly
268.47539°
Mean anomaly
268.4941°
Eccentric anomaly
268.48475°
Mean motion
3.83621 °/min
Orbital period
93.84 mins
BSTAR
0.00038692
Loading maneuver chart data...
Computing Atmospheric mass density...
Loading historical data...
Loading historical data...
Loading historical data...
Loading historical data...
Loading historical data...
Loading historical data...
Loading historical data...

Documentation

Showing up to 5 results
|